Regional Weather Roundup
Issued by NWS

Home | Current Version | Previous Version | Text Only | Print | Product List | Glossary On
Versions: 1 2 3 4 5 6 7 8 9 10 11 12 13 14 15 16 17 18 19 20 21 22 23 24 25 26 27 28 29 30 31 32 33 34 35 36 37 38 39 40 41 42 43 44 45 46 47 48 49 50
406
ASUS44 KLIX 241105
RWRLA
LOUISIANA WEATHER ROUNDUP
NATIONAL WEATHER SERVICE NEW ORLEANS LA
600 AM CDT THU JUL 24 2014

NOTE: "FAIR" INDICATES FEW OR NO CLOUDS BELOW 12,000 FEET WITH NO
      SIGNIFICANT WEATHER AND/OR OBSTRUCTIONS TO VISIBILITY.
      SKY/WX - SKY CONDITION AND SIGNIFICANT WEATHER.
      TMP - AIR TEMPERATURE.    DP   - DEWPOINT TEMPERATURE.
      RH  - RELATIVE HUMIDITY.  PRES - PRESSURE.
      HX  - HEAT INDEX.         WCI  - WIND CHILL INDEX.

*  THESE STATIONS ARE NOT NWS OR FAA STATIONS AND ARE NOT UNDER
   NWS QUALITY CONTROL.

LAZ040-048-061>063-065-066-069-241200-
SOUTHEAST LOUISIANA

CITY           SKY/WX    TMP DP  RH WIND       PRES   REMARKS
N.O. AUDUBON     N/A     76  73  90 MISG        N/A
N.O. INTL ARPT PTCLDY    75  72  90 CALM      29.97R
N.O. LAKEFRONT CLEAR     77  72  84 CALM      29.98R
N.O. DOWNTOWN* FAIR      79  70  73 CALM      29.98R
SLIDELL        CLEAR     71  69  93 CALM      29.98R
BATON ROUGE    CLEAR     73  71  93 CALM      29.98R
BOOTHVILLE       N/A     79  73  82 S6        29.98R
BELLE CHASSE   PTCLDY    73  70  90 CALM      29.97R
BOGALUSA*        N/A     71  67  89 CALM      30.00R
GALLIANO*      NOT AVBL
NEW ROADS*     FAIR      73  72  98 CALM      29.99R FOG
GONZALES*      FAIR      70  70 100 CALM      29.98R
HAMMOND*       CLEAR     72  68  88 CALM      30.00R
HOUMA*         CLEAR     72  69  91 CALM      29.97R FOG
PORT FOURCHON* CLOUDY    81  73  78 SW8       29.98S

$$

LAZ041-044-053-054-241200-
SOUTHWEST LOUISIANA

CITY           SKY/WX    TMP DP  RH WIND       PRES   REMARKS
LAKE CHARLES   MOCLDY    74  72  93 CALM      29.97R
LAFAYETTE      CLEAR     75  73  93 CALM      29.97R
PATTERSON      CLEAR     73  72  94 CALM      30.00R
SALT POINT       N/A     78  75  90 CALM      29.95S
NEW IBERIA     CLEAR     76  73  91 NE3       29.97S
CHENAULT AIRPK CLEAR     73  72  94 NW8       29.99R

$$

LAZ027-028-241200-
CENTRAL LOUISIANA

CITY           SKY/WX    TMP DP  RH WIND       PRES   REMARKS
FORT POLK      CLEAR     71  69  93 N5        30.01R
ALEXANDRIA INT CLEAR     72  70  93 N6        29.99R
ALEXANDRIA     CLOUDY    72  70  93 NW3       30.01R

$$

LAZ001-002-241200-
NORTHWEST LOUISIANA

CITY           SKY/WX    TMP DP  RH WIND       PRES   REMARKS
SHREVEPORT     FOG       70  69  97 NW6       30.03R VSB 1
BARKSDALE AFB  NOT AVBL
DTN SHREVEPORT NOT AVBL

$$

LAZ014-016-241200-
NORTHEAST LOUISIANA

CITY           SKY/WX    TMP DP  RH WIND       PRES   REMARKS
MONROE         CLOUDY    71  69  93 N5        30.02R FOG
TALLULAH       MOCLDY    72  70  93 W3        30.00R FOG

$$




USA.gov is the U.S. government's official web portal to all federal, state and local government web resources and services.